This demonstration page uses our WeatherBlox Daily Observations layout. Learn more.

Left ArrowRight Arrow

40.92945, -100.16068

Hourly Observations for July 18, 2019

Temp ( °F °C ) Dew Point ( °F °C ) Humidity (%) Winds ( mph kmh ) Pressure ( in mb ) Visibility ( mi km ) Precip ( " mm )
12:15 am 00:15 Clear with Mist and Fog 75 24 75 23.9 99 99 N N/A 29.65 1004 5 8 N/A
12:35 am 00:35 Clear with Mist and Fog 74 23.5 74 23.4 99 99 N N/A 29.64 1004 5 8 N/A
12:55 am 00:55 Clear with Mist and Fog 73 23 73 22.9 99 99 NNW 5 7 29.66 1004 4 6 N/A
1:15 am 01:15 Clear with Mist and Fog 74 23.2 74 23.2 100 100 NNW 3 6 29.66 1004 3 5 N/A
1:35 am 01:35 Clear with Mist and Fog 73 22.9 73 22.9 100 100 N N/A 29.67 1005 3 5 N/A
1:55 am 01:55 Clear with Mist and Fog 72 22.2 72 22.2 100 100 N N/A 29.66 1005 3 5 N/A
2:15 am 02:15 Clear with Mist and Fog 72 22.3 72 22.3 100 100 N 14 22 29.68 1005 3 4 N/A
2:35 am 02:35 Clear 75 23.7 72 22.3 92 92 WSW 5 7 29.66 1004 10 16 N/A
2:55 am 02:55 Clear 74 23.3 72 22 92 92 N 6 9 29.69 1006 10 16 N/A
3:15 am 03:15 Clear 72 22.1 71 21.5 96 96 N N/A 29.69 1006 10 16 N/A
3:35 am 03:35 Clear 71 21.5 70 21.2 98 98 SSW 3 6 29.69 1005 10 16 N/A
3:55 am 03:55 Clear 73 22.6 69 20.3 87 87 N N/A 29.67 1005 10 16 N/A
4:15 am 04:15 Clear 70 21.1 68 20.2 95 95 N N/A 29.69 1006 10 16 N/A
4:35 am 04:35 Clear 69 20.8 68 20.1 96 96 N N/A 29.69 1005 10 16 N/A
4:55 am 04:55 Clear 69 20.7 68 19.8 95 95 NNE 3 6 29.70 1006 10 16 N/A
5:15 am 05:15 Clear 70 21 67 19.4 91 91 N N/A 29.68 1005 10 16 N/A
5:35 am 05:35 Clear 69 20.8 67 19.5 92 92 N N/A 29.70 1006 10 16 N/A
5:55 am 05:55 Clear 72 22.1 65 18.5 80 80 SSW 3 6 29.68 1005 10 16 N/A
6:15 am 06:15 Clear 70 20.9 65 18.5 86 86 N N/A 29.69 1005 10 16 N/A
6:35 am 06:35 Sunny 67 19.5 65 18.5 94 94 N 5 7 29.70 1006 10 16 N/A
6:55 am 06:55 Sunny 68 19.8 65 18.6 93 93 N N/A 29.69 1006 10 16 N/A
7:15 am 07:15 Sunny 69 20.3 66 19.1 93 93 ESE 5 7 29.68 1005 10 16 N/A
7:35 am 07:35 Sunny 72 22.4 67 19.5 84 84 S 3 6 29.66 1004 10 16 N/A
7:55 am 07:55 Sunny 73 23 68 19.8 82 82 SE 3 6 29.66 1004 10 16 N/A
8:15 am 08:15 Sunny 75 23.8 68 20 79 79 N N/A 29.66 1004 10 16 N/A
8:35 am 08:35 Sunny 76 24.2 70 20.9 82 82 SSW 6 9 29.66 1004 10 16 N/A
8:55 am 08:55 Sunny 77 24.9 70 20.9 79 79 SSW 9 15 29.65 1004 10 16 N/A
9:15 am 09:15 Sunny 78 25.5 70 21.3 78 78 SSW 9 15 29.65 1004 10 16 N/A
9:35 am 09:35 Sunny 78 25.5 70 21 76 76 SSW 8 13 29.65 1004 10 16 N/A
9:55 am 09:55 Sunny 79 26.1 71 21.4 75 75 SSW 8 13 29.64 1004 10 16 N/A
10:15 am 10:15 Sunny 80 26.6 71 21.7 75 75 S 8 13 29.63 1003 10 16 N/A
10:35 am 10:35 Sunny 81 27 71 21.7 73 73 S 9 15 29.62 1003 10 16 N/A
10:55 am 10:55 Sunny 82 27.7 72 22 71 71 SSW 7 11 29.62 1003 10 16 N/A
11:15 am 11:15 Sunny 83 28.2 73 22.6 72 72 S 9 15 29.61 1003 10 16 N/A
11:35 am 11:35 Sunny 84 28.8 73 22.6 69 69 S 8 13 29.61 1003 10 16 N/A
11:55 am 11:55 Sunny 85 29.5 73 22.5 66 66 SSW 8 13 29.59 1002 10 16 N/A
12:15 pm 12:15 Sunny 86 30 73 22.5 64 64 SSW 6 9 29.59 1002 10 16 N/A
12:35 pm 12:35 Sunny 87 30.4 71 21.8 60 60 SW 5 7 29.60 1002 10 16 N/A
12:55 pm 12:55 Sunny 87 30.8 72 22.4 61 61 SW 7 11 29.59 1002 10 16 N/A
1:15 pm 13:15 Sunny 88 30.9 72 22.4 61 61 SW 6 9 29.59 1002 10 16 N/A
1:35 pm 13:35 Sunny 88 31.3 73 22.8 61 61 SW 6 9 29.58 1002 10 16 N/A
1:55 pm 13:55 Sunny 89 31.6 73 22.6 59 59 SW 5 7 29.58 1002 10 16 N/A
2:00 pm 14:00 Sunny 89 31.7 72 22.2 57 57 SW 6 9 29.58 1002 10 16 N/A
2:15 pm 14:15 Sunny 90 32 72 22.4 57 57 WSW 3 6 29.57 1002 10 16 N/A
2:35 pm 14:35 Sunny 90 32.3 71 21.9 54 54 N N/A 29.57 1001 10 16 N/A
2:55 pm 14:55 Sunny 91 32.6 73 22.7 56 56 SSW 5 7 29.56 1001 10 16 N/A
3:15 pm 15:15 Sunny 91 32.7 72 22.4 55 55 SW 5 7 29.56 1001 10 16 N/A
3:35 pm 15:35 Sunny 92 33.1 73 22.6 54 54 S 5 7 29.56 1001 10 16 N/A
3:55 pm 15:55 Sunny 92 33.5 72 22 51 51 S 7 11 29.55 1001 10 16 N/A
4:15 pm 16:15 Sunny 92 33.5 72 22.3 52 52 SSW 6 9 29.55 1001 10 16 N/A
4:35 pm 16:35 Sunny 93 33.8 73 22.7 52 52 S 6 9 29.55 1001 10 16 N/A
4:55 pm 16:55 Sunny 93 33.8 72 22.4 51 51 SSE 6 9 29.54 1000 10 16 N/A
5:15 pm 17:15 Sunny 93 33.9 73 22.8 52 52 S 7 11 29.54 1000 10 16 N/A
5:35 pm 17:35 Sunny 93 33.7 73 22.6 52 52 SSE 7 11 29.54 1000 10 16 N/A
5:55 pm 17:55 Sunny 93 33.7 74 23.3 54 54 S 6 9 29.53 1000 10 16 N/A
6:15 pm 18:15 Sunny 92 33.5 73 22.8 53 53 S 6 9 29.53 1000 10 16 N/A
6:35 pm 18:35 Sunny 92 33.2 75 23.9 58 58 SSE 9 15 29.54 1000 10 16 N/A
6:55 pm 18:55 Sunny 91 32.5 74 23.4 59 59 SSE 10 17 29.54 1000 10 16 N/A
7:15 pm 19:15 Sunny 90 32.3 74 23.2 59 59 SSE 8 13 29.54 1000 10 16 N/A
7:35 pm 19:35 Sunny 89 31.8 75 24.1 64 64 SSE 6 9 29.55 1001 10 16 N/A
7:55 pm 19:55 Sunny 88 31.1 76 24.5 68 68 SSE 7 11 29.55 1001 10 16 N/A
8:15 pm 20:15 Sunny 86 30.1 77 24.8 73 73 SSE 7 11 29.56 1001 10 16 N/A
8:35 pm 20:35 Sunny 85 29.2 76 24.5 76 76 SSE 8 13 29.58 1002 10 16 N/A
8:55 pm 20:55 Sunny 83 28.3 76 24.6 80 80 SE 5 7 29.57 1001 10 16 N/A
9:15 pm 21:15 Clear 82 27.5 76 24.6 84 84 SSE 3 6 29.58 1002 10 16 N/A
9:35 pm 21:35 Clear 80 26.9 75 24.1 85 85 SE 5 7 29.59 1002 10 16 N/A
9:55 pm 21:55 Clear 79 26.1 75 23.8 87 87 SE 6 9 29.60 1002 10 16 N/A
10:15 pm 22:15 Clear 78 25.8 75 24 90 90 SE 6 9 29.60 1003 10 16 N/A
10:35 pm 22:35 Clear 77 25 74 23.6 92 92 SE 5 7 29.61 1003 10 16 N/A
10:55 pm 22:55 Clear 77 25 75 23.7 93 93 SE 3 6 29.62 1003 10 16 N/A
11:15 pm 23:15 Clear 76 24.6 74 23.2 92 92 SE 5 7 29.61 1003 10 16 N/A
11:35 pm 23:35 Clear 76 24.5 74 23.1 92 92 SE 5 7 29.62 1003 10 16 N/A
11:55 pm 23:55 Clear 75 23.7 73 22.5 93 93 SE 6 9 29.62 1003 10 16 N/A

Powered by AerisWeather